Main page
Satellite images Climate Cyclones Lightning AirportsFAQ Languages Contact Newsletter About
Weather : Europe Africa North America South America Asia Australia-Oceania Others

, Ranong, Ranong Airport

48532

latitude: , longitude: Thailand, elevation: 09-59N m


METAR: VTSR 240500Z VRB03KT 9000 FEW020TCU SCT030 BKN100 33/24 Q1009 NOSIG